Flag for Germany Weather past 2 weeks in Hanau, Hesse, Germany

Now
68 °F

Sunny.


Feels Like: 68 °F
Forecast: 64 / 78 °F
Wind: 3 mph from East

Location: Frankfurt-M-Flughafen Airport

Current Time: Jul 28, 2014 at 8:36:02 AM

Latest Report: Jul 28, 2014 at 8:20 AM


Visibility: 10 mi

Pressure: 29.92 "Hg

Humidity: 83%

Dew point: 63 °F

Location of HanauLocation

Historic Weather in Hanau — Graph

°F

Hanau temperature yesterday

Maximum temperature yesterday: 84 °F (at 3:50 PM)
Minimum temperature yesterday: 64 °F (at 4:20 AM)
Average temperature yesterday: 74 °F

Past Weeks' High & Low Weather Summary

 TemperatureHumidityPressure
High93 °F (Jul 19, 4:20 PM)100% (Jul 13, 7:20 AM)30.18 "Hg (Jul 13, 7:20 AM)
Low59 °F (Jul 17, 4:50 AM)23% (Jul 18, 6:20 PM)29.77 "Hg (Jul 13, 4:20 PM)
Average73 °F66%29.97 "Hg
* Reported Jul 13 7:20 AM — Jul 28 7:20 AM, Hanau, Weather by CustomWeather, © 2014

Note: Actual official high and low records may vary slightly from our data, if they occured in-between our weather recording intervals... More about our weather records

Advertising

Hanau weather history for previous 24 hours

 ConditionsComfort  
Time TempWeatherWind HumidityBarometerVisibility
7:20 AM
Jul 28
66 °FSunny.5 mph88%29.92 "Hg10 mi
6:50 AM66 °FPassing clouds.3 mph88%29.92 "Hg5 mi
6:20 AM64 °FPassing clouds.3 mph94%29.92 "Hg5 mi
5:50 AM64 °FPassing clouds.2 mph94%29.92 "Hg6 mi
5:20 AM66 °FLight fog.2 mph94%29.92 "HgN/A
4:20 AM66 °FClear.2 mph88%29.92 "Hg10 mi
3:50 AM66 °FClear.3 mph94%29.92 "Hg10 mi
3:20 AM66 °FClear.2 mph94%29.92 "Hg10 mi
2:50 AM66 °FClear.3 mph88%29.92 "Hg10 mi
2:20 AM66 °FClear.2 mph88%29.95 "Hg10 mi
1:50 AM66 °FClear.1 mph88%29.95 "Hg10 mi
1:20 AM68 °FClear.1 mph83%29.95 "Hg10 mi
12:50 AM70 °FClear.No wind78%29.95 "Hg10 mi
12:20 AM70 °FClear.3 mph78%29.95 "Hg10 mi
11:50 PM
Jul 27
72 °FClear.3 mph69%29.95 "Hg10 mi
11:20 PM72 °FClear.3 mph69%29.95 "Hg10 mi
10:50 PM73 °FClear.2 mph61%29.95 "Hg10 mi
10:20 PM75 °FPartly cloudy.5 mph57%29.95 "HgN/A
9:50 PM75 °FBroken clouds.3 mph57%29.98 "HgN/A
9:20 PM77 °FBroken clouds.8 mph54%29.95 "HgN/A
8:50 PM77 °FBroken clouds.7 mph54%29.95 "HgN/A
8:20 PM79 °FSunny.7 mph51%29.95 "Hg10 mi
7:50 PM81 °FScattered clouds.8 mph48%29.95 "HgN/A
7:20 PM81 °FScattered clouds.9 mph48%29.95 "HgN/A
6:50 PM82 °FSunny.8 mph45%29.95 "Hg10 mi
6:20 PM82 °FSunny.9 mph45%29.92 "Hg10 mi
5:50 PM82 °FSunny.9 mph42%29.92 "Hg10 mi
5:20 PM82 °FPassing clouds.7 mph45%29.95 "HgN/A
4:50 PM82 °FPassing clouds.8 mph45%29.95 "HgN/A
4:20 PM82 °FSunny.8 mph45%29.95 "Hg10 mi
3:50 PM84 °FSunny.9 mph43%29.95 "Hg10 mi
3:20 PM82 °FPassing clouds.6 mph45%29.95 "HgN/A
2:50 PM82 °FSunny.7 mph45%29.98 "Hg10 mi
2:20 PM82 °FSunny.10 mph42%29.98 "Hg10 mi
1:50 PM82 °FPassing clouds.6 mph42%29.98 "HgN/A
1:20 PM81 °FSunny.3 mph45%29.98 "Hg10 mi
12:50 PM81 °FPassing clouds.3 mph51%29.98 "HgN/A
12:20 PM79 °FPassing clouds.3 mph48%29.98 "HgN/A
11:50 AM77 °FPassing clouds.3 mph54%29.98 "HgN/A
11:20 AM77 °FPassing clouds.1 mph57%29.98 "HgN/A
10:50 AM75 °FPassing clouds.3 mph61%29.98 "HgN/A
10:20 AM75 °FScattered clouds.2 mph61%29.98 "HgN/A
9:50 AM73 °FSunny.2 mph65%30.01 "Hg10 mi
9:20 AM70 °FSunny.5 mph78%30.01 "Hg10 mi
8:50 AM68 °FSunny.3 mph88%30.01 "Hg10 mi
8:20 AM66 °FSunny.5 mph88%29.98 "Hg10 mi
Weather by CustomWeather, © 2014

See weather overviewHow to use our weather pages